Weather in Karlovac

Croatia     45°29′34″N   15°33′00″E
temp.,
°C
wind,
m/s
gust,
m/s
humid.,
%
clouds,
%
prec.,
mm/h
press.,
hPa
HPBL,
m
5 march, fri
fri501:00+6sw24829 0.0 101790
04:00+6sw2384100 0.0 101674
07:00+6ssw2385100 0.0 101581
10:00+13wsw485592 0.0 10161475
13:00+14wsw464882 0.0 10161513
16:00+14w23533 0.4 10161178
19:00+7ene5108041 2.3 1019791
22:00+3ne2595100 5.5 1024422
6 march, sat
sat601:00+2ene4890100 7.0 1027728
04:00+2nnw1476100 0.1 1029440
07:00+1ne157698 0.1 1031342
10:00+4ene365225 0.0 10321248
13:00+6ene354513 0.0 10321468
16:00+6e24430 0.0 10301436
19:00+2e11590 0.0 103122
22:000w00690 0.0 103222
7 march, sun
sun701:00−1nw01740 0.0 103121
04:00−1s00750 0.0 102921
07:00−1sw00730 0.0 102922
10:00+7ese01450 0.0 1027650
13:00+10se11370 0.0 1025891
16:00+9e11400 0.0 1021691
19:00+4n11586 0.0 102122
22:00+2w116622 0.0 102122
8 march, mon
mon801:00+1wsw117351 0.0 102022
04:00+1w1176100 0.0 101822
07:00+1nw1179100 0.0 101822
10:00+7ne1257100 0.0 1018383
13:00+10ene2348100 0.0 10171018
16:00+10e234975 0.0 10161288
19:00+5ene276871 0.0 1018177
22:00+3ene28750 0.0 1020241
9 march, tue
tue901:00+3ne257050 0.0 1020179
04:00+1ne1177100 0.0 102022
07:00+1ene1281100 0.0 102057
10:00+5ene3461100 0.0 1021894
13:00+7ene3551100 0.0 10211226
16:00+8ene345164 0.0 10201276
19:00+3ene126932 0.0 102223
22:00+1nne11760 0.0 102322